Location: Shepherdstown, WV
(39.4326°N, 77.8042°W)
Time: 19:33:29
(UTC-04:00)

Vanguard 3 - Pass Details

Date: 01 August 2021
Orbit: 510 x 3260 km, 33.3° (Epoch: 18 September)

Event Time Altitude Azimuth Distance (km) Brightness Sun altitude
Rises 20:15:04 0° 256° (WSW) 5,784 12.5 0.6°
Reaches altitude 10° 20:18:22 10° 254° (WSW) 5,072 12.1 0.0°
Maximum altitude 20:34:36 72° 175° (S) 3,250 10.1 -2.8°
Drops below altitude 10° 20:54:26 10° 96° (E) 6,027 11.0 -6.2°
Enters shadow 20:58:18 - 95° (E) 6,777 11.3 -6.9°
